Mt. Pocono, PA

12:23 AM EST on December 15, 2017 (GMT -0500)
Pocono Mountains Municipal

Weather History for KMPO - December, 2013

Change the Weather History Date:

Monday, December 2, 2013

  Actual Average Record
Temperature  
Mean Temperature 35 °F 32 °F  
Max Temperature 43 °F 39 °F 61 °F (1982)
Min Temperature 27 °F 26 °F 0 °F (1967)
Degree Days  
Heating Degree Days 30 33  
Month to date heating degree days 64 65  
Since 1 July heating degree days 1676 1644  
Cooling Degree Days 0 0  
Month to date cooling degree days 0 0  
Year to date cooling degree days 467 314  
Moisture  
Dew Point 27 °F    
Average Humidity 71    
Maximum Humidity 85    
Minimum Humidity 57    
Precipitation  
Precipitation T in 0.13 in 3.56 in (1996)
Month to date precipitation T 0.25  
Year to date precipitation 41.58 45.16  
Sea Level Pressure  
Sea Level Pressure 29.93 in    
Wind  
Wind Speed 2 mph (SSE)    
Max Wind Speed 8 mph    
Max Gust Speed 11 mph    
Visibility 10 miles    
Events      
T = Trace of Precipitation, MM = Missing Value Source: NWS Daily Summary

Daily Weather History Graph

Daily Weather History Graph

Search for Another Location

Airport or City:

Trip Planner

Search our weather history database for the weather conditions in past years. The results will help you decide how hot, cold, wet, or windy it might be!

Date:

Astronomy

Dec. 02, 2013 Rise Set
Actual Time 7:08 AM EST 4:33 PM EST
Civil Twilight 6:37 AM EST 5:03 PM EST
Nautical Twilight 6:03 AM EST 5:38 PM EST
Astronomical Twilight 5:30 AM EST 6:11 PM EST
Moon 6:30 AM EST (12/2) 4:34 PM EST (12/2)
Length of Visible Light 10h 26m
Length of Day
9h 24m
Waning Crescent, 0% of the Moon is Illuminated
Dec 2
Waning Crescent
Dec 2
New
Dec 9
First Quarter
Dec 17
Full
Dec 25
Last Quarter

Hourly Weather History & Observations

Time (EST) Temp. Windchill Dew Point Humidity Pressure Visibility Wind Dir Wind Speed Gust Speed Precip Events Conditions
12:53 AM 33.1 °F - 26.1 °F 75% 29.98 in 10.0 mi Calm Calm - N/A   Overcast
1:53 AM 33.1 °F 30.0 °F 27.0 °F 78% 29.98 in 10.0 mi SSE 3.5 mph - N/A   Overcast
2:53 AM 34.0 °F - 27.0 °F 75% 29.98 in 10.0 mi Calm Calm - N/A   Overcast
3:11 AM 34.0 °F - 27.0 °F 75% 29.93 in 10.0 mi Calm Calm - N/A   Overcast
3:53 AM 34.0 °F - 28.0 °F 79% 29.96 in 10.0 mi Calm Calm - N/A   Overcast
4:45 AM 33.1 °F - 26.1 °F 75% 29.91 in 10.0 mi Calm Calm - 0.00 in   Overcast
4:53 AM 33.1 °F - 26.1 °F 75% 29.96 in 10.0 mi Calm Calm - 0.00 in   Overcast
5:53 AM 34.0 °F - 26.1 °F 73% 29.95 in 10.0 mi Calm Calm - N/A   Overcast
6:53 AM 34.0 °F 31.0 °F 28.0 °F 79% 29.96 in 10.0 mi East 3.5 mph - N/A   Overcast
7:53 AM 35.1 °F - 27.0 °F 72% 29.96 in 9.0 mi Calm Calm - 0.00 in   Overcast
8:53 AM 36.0 °F - 27.0 °F 70% 29.95 in 10.0 mi Calm Calm - 0.00 in   Overcast
9:46 AM 37.0 °F - 26.1 °F 65% 29.91 in 10.0 mi Calm Calm - N/A   Overcast
9:53 AM 37.0 °F - 25.0 °F 62% 29.96 in 10.0 mi Calm Calm - N/A   Overcast
10:42 AM 39.0 °F 36.8 °F 27.0 °F 62% 29.92 in 10.0 mi South 3.5 mph - N/A   Overcast
10:53 AM 39.0 °F 35.7 °F 27.0 °F 62% 29.96 in 10.0 mi SSE 4.6 mph - N/A   Overcast
11:39 AM 39.9 °F 37.8 °F 28.0 °F 63% 29.88 in 10.0 mi SSE 3.5 mph - N/A   Overcast
11:53 AM 39.9 °F 36.7 °F 28.0 °F 63% 29.92 in 10.0 mi ESE 4.6 mph - N/A   Overcast
12:53 PM 43.0 °F - 28.0 °F 56% 29.91 in 10.0 mi Calm Calm - N/A   Partly Cloudy
1:53 PM 43.0 °F 39.5 °F 30.0 °F 60% 29.89 in 10.0 mi SW 5.8 mph - N/A   Overcast
2:53 PM 42.1 °F 40.2 °F 28.0 °F 58% 29.87 in 10.0 mi SE 3.5 mph - N/A   Overcast
3:53 PM 39.9 °F 35.8 °F 28.0 °F 63% 29.90 in 10.0 mi SE 5.8 mph - N/A   Overcast
4:53 PM 37.9 °F 34.4 °F 28.0 °F 68% 29.91 in 10.0 mi SSE 4.6 mph - N/A   Overcast
5:53 PM 37.9 °F - 28.0 °F 68% 29.91 in 10.0 mi Calm Calm - N/A   Overcast
6:53 PM 35.1 °F 32.2 °F 28.0 °F 76% 29.90 in 10.0 mi NW 3.5 mph - N/A   Partly Cloudy
7:53 PM 35.1 °F 30.1 °F 28.0 °F 76% 29.89 in 10.0 mi NNW 5.8 mph - N/A   Mostly Cloudy
8:53 PM 32.0 °F - 27.0 °F 82% 29.90 in 8.0 mi Calm Calm - N/A   Scattered Clouds
9:53 PM 30.9 °F - 26.1 °F 82% 29.91 in 8.0 mi Calm Calm - N/A   Clear
10:53 PM 30.0 °F - 27.0 °F 88% 29.90 in 8.0 mi Calm Calm - N/A   Clear
11:53 PM 28.0 °F - 25.0 °F 88% 29.90 in 6.0 mi Calm Calm - N/A   Mostly Cloudy